Salina, KS

10:13 PM CDT on May 25, 2017 (GMT -0500)
Salina Municipal

Weather History for KSLN - September, 2012

Change the Weather History Date:

Wednesday, September 12, 2012

  Actual Average Record
Temperature  
Mean Temperature 75 °F 72 °F  
Max Temperature 92 °F 84 °F 107 °F (1956)
Min Temperature 58 °F 60 °F 35 °F (1902)
Degree Days  
Heating Degree Days 0 1  
Month to date heating degree days 0 5  
Since 1 July heating degree days 0 6  
Cooling Degree Days 10 8  
Month to date cooling degree days 132 115  
Year to date cooling degree days 2010 1522  
Growing Degree Days 25 (Base 50)    
Moisture  
Dew Point 52 °F    
Average Humidity 44    
Maximum Humidity 56    
Minimum Humidity 32    
Precipitation  
Precipitation 0.07 in 0.09 in 2.29 in (1961)
Month to date precipitation 0.65 1.14  
Year to date precipitation 14.98 25.48  
Sea Level Pressure  
Sea Level Pressure 29.93 in    
Wind  
Wind Speed 15 mph (SSE)    
Max Wind Speed 36 mph    
Max Gust Speed 41 mph    
Visibility 10 miles    
Events Rain    
T = Trace of Precipitation, MM = Missing Value Source: NWS Daily Summary

Daily Weather History Graph

Daily Weather History Graph

Search for Another Location

Airport or City:

Trip Planner

Search our weather history database for the weather conditions in past years. The results will help you decide how hot, cold, wet, or windy it might be!

Date:

Astronomy

Sep. 12, 2012 Rise Set
Actual Time 7:09 AM CDT 7:42 PM CDT
Civil Twilight 6:43 AM CDT 8:09 PM CDT
Nautical Twilight 6:11 AM CDT 8:40 PM CDT
Astronomical Twilight 5:39 AM CDT 9:13 PM CDT
Moon 3:29 AM CDT (9/12) 5:29 PM CDT (9/12)
Length of Visible Light 13h 26m
Length of Day
12h 32m
Waning Crescent, 13% of the Moon is Illuminated
Sep 12
Waning Crescent
Sep 15
New
Sep 22
First Quarter
Sep 29
Full
Oct 8
Last Quarter

Hourly Weather History & Observations

Time (CDT) Temp. Heat Index Dew Point Humidity Pressure Visibility Wind Dir Wind Speed Gust Speed Precip Events Conditions
12:53 AM 77.0 °F - 48.0 °F 36% 29.86 in 10.0 mi South 17.3 mph - N/A   Clear
1:53 AM 77.0 °F - 48.0 °F 36% 29.85 in 10.0 mi South 18.4 mph 27.6 mph N/A   Clear
2:53 AM 75.9 °F - 48.9 °F 38% 29.84 in 10.0 mi South 17.3 mph 24.2 mph N/A   Clear
3:53 AM 75.9 °F - 48.0 °F 37% 29.83 in 10.0 mi South 17.3 mph - N/A   Clear
4:53 AM 75.9 °F - 48.9 °F 38% 29.83 in 10.0 mi South 15.0 mph 27.6 mph N/A   Clear
5:53 AM 75.9 °F - 48.9 °F 38% 29.83 in 10.0 mi South 18.4 mph 27.6 mph N/A   Partly Cloudy
6:53 AM 75.0 °F - 50.0 °F 41% 29.83 in 10.0 mi South 17.3 mph 25.3 mph N/A   Clear
7:53 AM 75.0 °F - 51.1 °F 43% 29.86 in 10.0 mi South 17.3 mph 25.3 mph N/A   Clear
8:53 AM 73.0 °F - 53.1 °F 49% 29.91 in 10.0 mi South 8.1 mph - 0.00 in Rain Light Rain
9:53 AM 75.0 °F - 53.1 °F 46% 29.93 in 10.0 mi South 9.2 mph - 0.00 in   Clear
10:53 AM 81.0 °F 80.5 °F 54.0 °F 39% 29.92 in 10.0 mi South 17.3 mph 24.2 mph N/A   Clear
11:53 AM 84.0 °F 82.6 °F 54.0 °F 35% 29.93 in 10.0 mi SSW 11.5 mph - N/A   Clear
12:53 PM 84.9 °F 83.3 °F 54.0 °F 34% 29.92 in 10.0 mi South 9.2 mph - N/A   Clear
1:53 PM 88.0 °F 86.1 °F 55.0 °F 32% 29.91 in 10.0 mi SE 8.1 mph - N/A   Clear
2:53 PM 90.0 °F 88.1 °F 55.9 °F 31% 29.90 in 10.0 mi SSE 8.1 mph - N/A   Clear
3:53 PM 89.1 °F 87.1 °F 55.0 °F 31% 29.88 in 10.0 mi Calm Calm - N/A   Clear
4:53 PM 91.9 °F 90.6 °F 57.0 °F 31% 29.87 in 10.0 mi Variable 3.5 mph - 0.00 in Rain Light Rain
5:53 PM 89.1 °F 87.7 °F 57.0 °F 34% 29.87 in 10.0 mi NNE 10.4 mph - 0.00 in   Mostly Cloudy
6:53 PM 82.9 °F 82.4 °F 57.0 °F 41% 29.90 in 10.0 mi NNE 20.7 mph 25.3 mph 0.00 in   Mostly Cloudy
7:53 PM 71.1 °F - 50.0 °F 47% 29.98 in 6.0 mi North 31.1 mph 38.0 mph 0.00 in   Haze
8:53 PM 66.0 °F - 48.0 °F 52% 30.04 in 6.0 mi North 24.2 mph 33.4 mph N/A   Haze
9:53 PM 64.9 °F - 45.0 °F 48% 30.08 in 10.0 mi North 24.2 mph 33.4 mph N/A   Partly Cloudy
10:53 PM 62.1 °F - 46.9 °F 58% 30.12 in 10.0 mi North 24.2 mph 31.1 mph N/A   Overcast
11:38 PM 59.0 °F - 51.8 °F 77% 30.17 in 6.0 mi North 18.4 mph 34.5 mph 0.03 in Rain Light Rain
11:53 PM 59.0 °F - 52.0 °F 78% 30.15 in 10.0 mi NNE 20.7 mph 28.8 mph 0.04 in Rain Light Rain